Weather History for Washington, MO

Change the Weather History Date:

Monday, September 16, 2013

  Actual Average (KSTL) Record (KSTL)
Temperature  
Mean Temperature 65 °F 70 °F  
Max Temperature 71 °F 80 °F 98 °F (1954)
Min Temperature 59 °F 61 °F 44 °F (1966)
Degree Days  
Heating Degree Days 0 1  
Month to date heating degree days 5  
Since 1 July heating degree days 6  
Cooling Degree Days 0 6  
Month to date cooling degree days 141  
Year to date cooling degree days 1540  
Growing Degree Days 15 (Base 50)    
Moisture  
Dew Point 58 °F    
Average Humidity 82    
Maximum Humidity 100    
Minimum Humidity 60    
Precipitation  
Precipitation 0.00 in 0.10 in 2.78 in (1969)
Month to date precipitation 1.65  
Year to date precipitation 29.40  
Snow  
Snow 0.00 in 0.00 in 0.00 in (2013)
Month to date snowfall 0.0  
Since 1 July snowfall 0.0  
Since 1 September snowfall 0.0  
Snow Depth -    
Sea Level Pressure  
Sea Level Pressure 30.21 in    
Wind  
Wind Speed 2 mph (NE)    
Max Wind Speed 8 mph    
Max Gust Speed -    
Visibility 10 miles    
Events Rain , Thunderstorm    
T = Trace of Precipitation, MM = Missing Value Source: NWS Daily Summary

Daily Weather History Graph

Daily Weather History Graph

Search for Another Location

Airport:

Trip Planner

Search our weather history database for the weather conditions in past years. The results will help you decide how hot, cold, wet, or windy it might be!

Date:

Astronomy

Sep. 16, 2013 Rise Set
Actual Time 6:46 AM CDT 7:10 PM CDT
Civil Twilight 6:20 AM CDT 7:36 PM CDT
Nautical Twilight 5:48 AM CDT 8:07 PM CDT
Astronomical Twilight 5:16 AM CDT 8:39 PM CDT
Moon 5:17 PM CDT (9/16) 3:34 AM CDT (9/16)
Length of Visible Light 13h 16m
Length of Day
12h 23m
Waxing Gibbous, 90% of the Moon is Illuminated
Sep 16
Waxing Gibbous
Sep 19
Full
Sep 26
Last Quarter
Oct 4
New
Oct 11
First Quarter

Hourly Weather History & Observations

Time (CDT) Temp. Dew Point Humidity Pressure Visibility Wind Dir Wind Speed Gust Speed Precip Events Conditions
12:15 AM 66.2 °F 66.2 °F 100% 30.12 in 10.0 mi NNW 5.8 mph - N/A   Mostly Cloudy
12:35 AM 66.2 °F 66.2 °F 100% 30.12 in 10.0 mi Calm Calm - N/A   Overcast
12:55 AM 66.2 °F 66.2 °F 100% 30.12 in 10.0 mi Calm Calm - N/A   Overcast
1:15 AM 66.2 °F 66.2 °F 100% 30.13 in 10.0 mi Calm Calm - N/A   Overcast
1:35 AM 66.2 °F 66.2 °F 100% 30.13 in 10.0 mi Calm Calm - N/A   Overcast
1:55 AM 66.2 °F 66.2 °F 100% 30.13 in 10.0 mi Calm Calm - N/A Thunderstorm Overcast
2:15 AM 66.2 °F 66.2 °F 100% 30.14 in 10.0 mi Calm Calm - N/A   Overcast
2:35 AM 66.2 °F 66.2 °F 100% 30.14 in 9.0 mi Calm Calm - N/A   Overcast
2:55 AM 66.2 °F 66.2 °F 100% 30.13 in 5.0 mi Calm Calm - N/A   Overcast
3:15 AM 64.4 °F 64.4 °F 100% 30.14 in 2.0 mi Calm Calm - N/A Rain Light Rain
3:35 AM 64.4 °F 64.4 °F 100% 30.15 in 3.0 mi NNE 4.6 mph - N/A   Overcast
3:55 AM 64.4 °F 62.6 °F 94% 30.15 in 10.0 mi NNW 3.5 mph - N/A   Overcast
4:15 AM 62.6 °F 62.6 °F 100% 30.16 in 10.0 mi NNW 5.8 mph - N/A   Overcast
4:35 AM 62.6 °F 60.8 °F 94% 30.17 in 10.0 mi NW 3.5 mph - N/A   Overcast
4:55 AM 62.6 °F 60.8 °F 94% 30.18 in 10.0 mi North 3.5 mph - N/A   Overcast
5:15 AM 62.6 °F 59.0 °F 88% 30.18 in 10.0 mi Calm Calm - N/A   Overcast
5:35 AM 62.6 °F 59.0 °F 88% 30.19 in 10.0 mi North 3.5 mph - N/A   Overcast
5:55 AM 60.8 °F 59.0 °F 94% 30.18 in 10.0 mi NNE 4.6 mph - N/A   Overcast
6:15 AM 60.8 °F 59.0 °F 94% 30.18 in 10.0 mi NE 5.8 mph - N/A   Overcast
6:35 AM 60.8 °F 59.0 °F 94% 30.19 in 10.0 mi Calm Calm - N/A   Overcast
6:55 AM 60.8 °F 59.0 °F 94% 30.20 in 10.0 mi Calm Calm - N/A   Overcast
7:15 AM 59.0 °F 57.2 °F 94% 30.21 in 10.0 mi NE 3.5 mph - N/A   Overcast
7:35 AM 59.0 °F 57.2 °F 94% 30.22 in 9.0 mi NNE 5.8 mph - N/A   Overcast
7:55 AM 59.0 °F 57.2 °F 94% 30.23 in 10.0 mi North 4.6 mph - N/A   Overcast
8:15 AM 59.0 °F 57.2 °F 94% 30.23 in 10.0 mi NE 4.6 mph - N/A   Overcast
8:35 AM 59.0 °F 57.2 °F 94% 30.24 in 8.0 mi Calm Calm - N/A   Overcast
8:55 AM 59.0 °F 57.2 °F 94% 30.24 in 10.0 mi Calm Calm - N/A   Overcast
9:15 AM 59.0 °F 57.2 °F 94% 30.25 in 10.0 mi ENE 4.6 mph - N/A   Overcast
9:35 AM 59.0 °F 57.2 °F 94% 30.26 in 10.0 mi Calm Calm - N/A   Overcast
9:55 AM 60.8 °F 57.2 °F 88% 30.26 in 10.0 mi East 3.5 mph - N/A   Overcast
10:15 AM 60.8 °F 57.2 °F 88% 30.27 in 10.0 mi NNE 3.5 mph - N/A   Overcast
10:35 AM 60.8 °F 57.2 °F 88% 30.27 in 10.0 mi East 6.9 mph - N/A   Overcast
10:55 AM 62.6 °F 57.2 °F 82% 30.28 in 10.0 mi NE 4.6 mph - N/A   Overcast
11:15 AM 62.6 °F 57.2 °F 82% 30.27 in 10.0 mi ENE 5.8 mph - N/A   Overcast
11:35 AM 62.6 °F 57.2 °F 82% 30.28 in 10.0 mi ENE 8.1 mph - N/A   Overcast
11:55 AM 62.6 °F 57.2 °F 82% 30.28 in 10.0 mi East 5.8 mph - N/A   Overcast
12:15 PM 64.4 °F 57.2 °F 77% 30.27 in 10.0 mi East 6.9 mph - N/A   Overcast
12:35 PM 64.4 °F 57.2 °F 77% 30.27 in 10.0 mi Calm Calm - N/A   Overcast
12:55 PM 64.4 °F 57.2 °F 77% 30.27 in 10.0 mi Calm Calm - N/A   Overcast
1:15 PM 64.4 °F 57.2 °F 77% 30.27 in 10.0 mi ENE 3.5 mph - N/A   Overcast
1:35 PM 66.2 °F 57.2 °F 73% 30.26 in 10.0 mi Calm Calm - N/A   Overcast
1:55 PM 66.2 °F 57.2 °F 73% 30.26 in 10.0 mi Calm Calm - N/A   Overcast
2:15 PM 68.0 °F 57.2 °F 68% 30.25 in 10.0 mi Calm Calm - N/A   Overcast
2:35 PM 68.0 °F 57.2 °F 68% 30.24 in 10.0 mi Calm Calm - N/A   Overcast
2:55 PM 68.0 °F 57.2 °F 68% 30.23 in 10.0 mi Calm Calm - N/A   Overcast
3:15 PM 68.0 °F 57.2 °F 68% 30.22 in 10.0 mi Calm Calm - N/A   Overcast
3:35 PM 69.8 °F 57.2 °F 64% 30.22 in 10.0 mi Calm Calm - N/A   Overcast
3:55 PM 69.8 °F 57.2 °F 64% 30.22 in 10.0 mi Calm Calm - N/A   Overcast
4:15 PM 71.6 °F 57.2 °F 60% 30.21 in 10.0 mi Calm Calm - N/A   Mostly Cloudy
4:35 PM 71.6 °F 57.2 °F 60% 30.21 in 10.0 mi Calm Calm - N/A   Scattered Clouds
4:55 PM 69.8 °F 55.4 °F 60% 30.21 in 10.0 mi Calm Calm - N/A   Mostly Cloudy
5:15 PM 69.8 °F 55.4 °F 60% 30.20 in 10.0 mi Calm Calm - N/A   Partly Cloudy
5:35 PM 69.8 °F 55.4 °F 60% 30.20 in 10.0 mi Calm Calm - N/A   Clear
5:55 PM 69.8 °F 55.4 °F 60% 30.20 in 10.0 mi Calm Calm - N/A   Clear
6:15 PM 68.0 °F 55.4 °F 64% 30.20 in 10.0 mi Calm Calm - N/A   Clear
6:35 PM 68.0 °F 57.2 °F 68% 30.20 in 10.0 mi Calm Calm - N/A   Clear
6:55 PM 68.0 °F 55.4 °F 64% 30.19 in 10.0 mi Calm Calm - N/A   Clear
7:15 PM 66.2 °F 57.2 °F 73% 30.19 in 10.0 mi Calm Calm - N/A   Clear
7:35 PM 66.2 °F 55.4 °F 68% 30.19 in 10.0 mi Calm Calm - N/A   Partly Cloudy
7:55 PM 66.2 °F 55.4 °F 68% 30.20 in 10.0 mi Calm Calm - N/A   Mostly Cloudy
8:15 PM 64.4 °F 55.4 °F 73% 30.20 in 10.0 mi Calm Calm - N/A   Overcast
8:35 PM 64.4 °F 55.4 °F 73% 30.21 in 10.0 mi Calm Calm - N/A   Overcast
8:55 PM 64.4 °F 53.6 °F 68% 30.21 in 10.0 mi Calm Calm - N/A   Overcast
9:15 PM 64.4 °F 53.6 °F 68% 30.22 in 10.0 mi Calm Calm - N/A   Overcast
9:35 PM 62.6 °F 55.4 °F 77% 30.22 in 10.0 mi Calm Calm - N/A   Overcast
9:55 PM 62.6 °F 55.4 °F 77% 30.22 in 10.0 mi Calm Calm - N/A   Overcast
10:15 PM 62.6 °F 55.4 °F 77% 30.22 in 10.0 mi Calm Calm - N/A   Overcast
10:35 PM 59.0 °F 55.4 °F 88% 30.23 in 10.0 mi Calm Calm - N/A   Overcast
10:55 PM 59.0 °F 55.4 °F 88% 30.23 in 10.0 mi Calm Calm - N/A   Overcast
11:15 PM 60.8 °F 55.4 °F 82% 30.23 in 10.0 mi Calm Calm - N/A   Overcast
11:35 PM 62.6 °F 55.4 °F 77% 30.23 in 10.0 mi Calm Calm - N/A   Overcast
11:55 PM 60.8 °F 55.4 °F 82% 30.23 in 10.0 mi Calm Calm - N/A   Overcast